Location: Newark
(48.9886°N, 1.2358°E)
Time: 04:30:47
(UTC+00:00)

deb Explorer IX - All Passes

Search period start: 18 November 2019 00:00
Search period end: 28 November 2019 00:00
Orbit: 546 x 1105 km, 38.8° (Epoch: 16 November)

Date Brightness Start Highest point End Pass type
(mag) Time Alt. Az. Time Alt. Az. Time Alt. Az.
18 Nov - 00:50:50 10° SSW 00:54:27 16° SSE 00:57:47 10° ESE night (unlit)
18 Nov - 02:35:49 10° SW 02:40:39 26° S 02:44:56 10° ESE visible
18 Nov - 04:22:31 10° WSW 04:26:51 25° S 04:30:43 10° SE visible
18 Nov - 06:10:50 10° SW 06:12:40 12° SSW 06:14:26 10° S visible
19 Nov - 00:28:31 10° SSW 00:32:26 17° SSE 00:36:03 10° ESE night (unlit)
19 Nov - 02:13:38 10° SW 02:18:41 27° S 02:23:08 10° ESE visible
19 Nov - 04:00:22 10° WSW 04:04:55 25° S 04:08:56 10° SE visible
19 Nov - 05:48:41 10° SW 05:50:44 12° SSW 05:52:41 10° S visible
20 Nov - 00:06:13 10° SSW 00:10:24 18° SSE 00:14:17 10° ESE night (unlit)
20 Nov - 01:51:25 10° SW 01:56:41 28° S 02:01:19 10° ESE night (unlit)
20 Nov - 03:38:13 10° WSW 03:42:57 26° SSW 03:47:08 10° SE visible
20 Nov - 05:26:31 10° SW 05:28:47 13° SSW 05:30:56 10° S visible
20 Nov - 23:43:55 10° SSW 23:48:21 19° SSE 23:52:28 10° ESE night (unlit)
21 Nov - 01:29:12 10° SW 01:34:40 29° S 01:39:30 10° ESE night (unlit)
21 Nov - 03:16:02 10° WSW 03:20:59 27° SSW 03:25:19 10° SE visible
21 Nov - 05:04:20 10° WSW 05:06:50 13° SSW 05:09:10 10° S visible
21 Nov - 23:21:37 10° SSW 23:26:18 19° SSE 23:30:39 10° ESE night (unlit)
22 Nov - 01:06:59 10° SW 01:12:38 30° S 01:17:39 10° ESE night (unlit)
22 Nov - 02:53:51 10° WSW 02:58:59 28° SSW 03:03:29 10° SE visible
22 Nov - 04:42:09 10° WSW 04:44:52 14° SSW 04:47:24 10° S visible
22 Nov - 22:59:21 10° SSW 23:04:14 20° SSE 23:08:47 10° ESE night (unlit)
23 Nov - 00:44:46 10° SW 00:50:36 31° S 00:55:47 10° ESE night (unlit)
23 Nov - 02:31:40 10° WSW 02:36:58 28° SSW 02:41:39 10° SE visible
23 Nov - 04:19:57 10° WSW 04:22:52 14° SSW 04:25:36 10° S visible
23 Nov - 22:37:05 10° SSW 22:42:08 21° SSE 22:46:53 10° ESE night (unlit)
24 Nov - 00:22:33 10° SW 00:28:32 32° S 00:33:54 10° ESE night (unlit)
24 Nov - 02:09:27 10° WSW 02:14:57 29° SSW 02:19:48 10° SE night (unlit)
24 Nov - 03:57:44 10° WSW 04:00:52 15° SSW 04:03:48 10° S visible
24 Nov - 22:14:50 10° SSW 22:20:02 22° SSE 22:24:58 10° ESE night (unlit)
25 Nov - 00:00:20 10° SW 00:06:28 33° S 00:12:00 10° ESE night (unlit)
25 Nov - 01:47:15 10° WSW 01:52:54 30° SSW 01:57:55 10° SE night (unlit)
25 Nov - 03:35:30 10° WSW 03:38:51 15° SSW 03:41:58 10° S visible
25 Nov - 21:52:36 10° SSW 21:57:55 22° SSE 22:03:01 10° ESE night (unlit)
25 Nov - 23:38:07 10° SW 23:44:22 33° S 23:50:04 10° ESE night (unlit)
26 Nov - 01:25:02 10° WSW 01:30:51 30° SSW 01:36:02 10° SE night (unlit)
26 Nov - 03:13:17 10° WSW 03:16:50 16° SSW 03:20:07 10° S night (unlit)
26 Nov - 21:30:23 10° SSW 21:35:48 23° SSE 21:41:02 10° ESE night (unlit)
26 Nov - 23:15:54 10° SW 23:22:16 34° S 23:28:06 10° ESE night (unlit)
27 Nov - 01:02:50 10° WSW 01:08:46 31° SSW 01:14:07 10° SE night (unlit)
27 Nov - 02:51:02 10° WSW 02:54:47 16° SSW 02:58:16 10° S night (unlit)
27 Nov - 21:08:10 10° SSW 21:13:40 23° SSE 21:19:01 10° ESE night (unlit)
27 Nov - 22:53:42 10° SW 23:00:08 35° S 23:06:08 10° ESE night (unlit)
